sat.trackr.live / text

‹ back to catalog

STARLINK-2386

NORAD 47805 · 2021-018U

PAYLOAD ACTIVE UNKNOWN

§ Identity

Operator
Country
US
Launch date
2021-03-11
Launch site
AFETR
Launch vehicle
Mass (kg)
RCS (m²)

Purposes: comms

External: N2YO · Heavens-Above · Gunter

§ Orbital elements

Epoch: 2026-05-24T23:45:00.650304Z

Period
94.65 min
Inclination
53.1050°
Eccentricity
0.0001957
Mean motion
15.21421279 rev/d
Perigee alt
500.2 km
Apogee alt
502.9 km
Semi-major
6,879.7 km
B*
2.2591e-3
RAAN
246.1516°
Arg perigee
358.6209°
Mean anomaly
1.4781°
Rev number
28,842

§ Raw data

STARLINK-23861 47805U 21018U   26144.98959086  .00051395  00000+0  22591-2 0  99902 47805  53.1050 246.1516 0001957 358.6209   1.4781 15.21421279288429

JSON: /api/v1/satellites/47805 · /tle

For live sub-satellite position, see the globe view (requires WebGL).

§ Visibility from observer

Set your observer location to see the next 7 days of passes ≥ 10°. The values pass through the URL so the page stays shareable.

No JS? Fill the form by hand. The geolocation button needs JavaScript.